Location: Châteauvieux
(47.2310°N, 1.3828°E)
Time: 23:30:55
(UTC+00:00)

Cosmos 1975 - Pass Details

Date: 15 May 2026
Orbit: 471 x 485 km, 82.5° (Epoch: 11 June)

Event Time Altitude Azimuth Distance (km) Brightness Sun altitude
Rises 23:28:59 0° 344° (NNW) 2,572 7.6 -23.5°
Reaches altitude 10° 23:31:10 10° 337° (NNW) 1,685 6.3 -23.6°
Enters shadow 23:34:07 38° 290° (WNW) 760 3.6 -23.6°
